RH
44 17 12 13 13 11 12 10 8 16 15 34 41 40 44 47 50 66 65 68 61 58 50 60 89 89 88 87 84 82 80 79 78 80 80 79 78 78 75 74 74 74 74 72 72 64 65 67 70
13 15 15 10 11 11 10 9 12 21 32 42 45 46 43 72 61 65 80 72 56 56 52 47 92 88 86 84 82 80 77 77 79 80 78 77 77 75 76 77 78 75 73 70 72 67 67 71 76
18 16 14 12 11 10 10 11 14 18 38 39 39 43 49 69 66 67 60 73 68 61 49 55 90 88 85 83 81 79 80 80 81 78 77 77 75 75 76 80 80 78 75 71 73 72 70 78 83
12 13 12 12 11 10 10 8 10 17 30 34 35 51 59 78 73 62 54 77 78 69 62 86 89 86 84 82 80 81 81 81 79 77 77 75 75 75 77 78 80 78 77 74 76 70 75 82 83
10 10 12 12 11 10 8 8 23 22 29 33 36 47 60 90 80 76 84 82 85 78 78 80 90 87 82 81 82 82 82 79 78 77 77 76 76 77 77 78 78 80 81 78 72 72 76 81 82
12 11 12 10 11 9 11 24 32 36 38 42 43 46 67 81 83 87 96 95 96 91 86 85 91 87 84 83 84 83 80 79 78 79 79 79 78 80 80 78 80 80 78 77 77 78 79 80 77
13 12 12 11 15 14 19 34 41 41 38 43 41 48 87 84 86 87 95 97 97 99 97 92 90 85 88 87 86 86 82 82 82 83 83 84 83 81 79 76 76 78 78 78 78 79 79 77 74
12 12 12 11 13 15 24 36 44 42 43 44 43 46 77 90 83 89 95 95 97 98 98 95 92 87 84 82 91 90 89 90 88 86 84 84 82 82 81 78 77 76 79 81 82 80 78 74 72
12 14 11 13 14 14 24 34 43 47 46 48 52 51 65 88 78 83 94 96 97 98 96 94 89 87 82 80 86 86 89 86 83 79 80 70 38 39 42 75 84 80 81 81 80 78 78 76 68
14 14 13 12 12 13 23 37 43 50 48 52 72 90 85 84 79 82 93 95 96 97 95 93 90 88 87 82 80 67 65 61 60 55 52 40 45 40 41 66 86 83 81 79 75 71 69 56 28
14 15 13 12 12 14 21 36 38 39 46 42 66 93 89 83 80 86 91 92 90 91 91 91 91 90 87 88 86 70 64 68 62 62 49 53 48 47 43 49 46 48 56 36 39 39 31 36 32
16 13 13 13 19 26 35 34 38 42 51 52 72 83 84 78 78 88 92 93 92 92 90 90 90 93 86 89 83 80 73 61 58 52 56 55 50 50 48 43 44 46 39 42 40 37 43 41 39
17 14 13 15 24 30 36 35 36 53 52 54 69 77 78 76 73 77 72 78 85 91 85 86 85 86 87 86 89 81 66 57 50 56 55 43 43 52 47 49 42 42 41 40 40 40 37 40 38
15 16 20 24 30 30 29 33 36 56 54 63 67 64 70 68 66 75 61 64 70 70 73 58 63 58 53 63 73 65 61 57 58 44 48 58 50 52 46 48 45 43 41 40 39 39 38 35 34
17 20 22 24 27 29 30 32 31 52 55 65 52 58 64 66 60 65 57 57 54 47 51 63 54 58 56 60 62 61 55 47 44 46 62 62 57 54 52 48 47 44 44 45 43 42 38 34 28
16 19 18 25 26 30 28 27 38 54 54 53 45 49 51 62 60 58 56 55 47 46 52 58 55 58 63 59 51 46 44 50 49 53 58 65 64 62 58 50 48 48 47 42 42 41 36 33 28
18 16 17 18 24 26 27 24 37 54 50 44 42 46 47 50 49 55 53 51 49 45 51 61 59 56 61 63 55 53 52 52 53 60 63 67 64 64 56 50 50 54 46 47 44 41 38 35 30
16 18 16 17 24 28 26 22 35 44 46 44 37 42 46 45 48 47 51 47 42 43 52 56 57 63 68 61 56 43 48 48 55 56 53 61 54 60 54 49 56 49 47 48 44 44 36 32 30
19 19 17 18 20 26 23 19 19 37 45 42 36 37 40 43 40 46 45 43 42 46 53 55 62 63 72 56 50 42 48 50 55 53 57 59 53 55 55 50 55 51 49 47 50 44 44 37 37
24 21 20 20 21 22 16 16 16 30 38 37 32 33 33 36 40 44 48 45 45 46 50 52 52 54 60 51 46 42 40 44 46 51 59 60 58 54 53 53 54 52 46 52 50 47 41 38 38
26 23 22 21 21 19 20 17 19 25 32 36 34 30 30 32 40 44 46 50 52 48 51 47 47 49 56 55 49 45 45 50 52 55 65 65 74 60 54 59 58 57 48 48 50 48 44 40 40
27 20 22 23 23 22 20 20 16 20 28 36 38 38 37 34 34 37 44 48 50 51 48 47 48 49 53 58 52 52 44 49 51 54 52 53 60 60 53 55 57 60 48 48 48 42 42 41 42
23 22 23 24 22 24 21 21 17 22 20 24 29 32 35 32 32 33 37 42 45 47 50 49 47 48 51 55 57 53 49 42 46 55 59 62 63 60 54 54 58 62 51 51 50 49 47 43 43
23 26 26 26 25 35 20 21 17 14 15 14 16 24 29 32 33 30 31 36 40 44 51 55 51 50 51 56 61 61 59 51 49 61 63 61 63 63 58 51 55 56 51 52 48 49 52 56 62
25 27 36 41 41 40 27 26 18 15 16 18 19 17 19 27 33 34 32 36 42 48 55 58 54 51 51 56 59 63 66 64 62 61 62 64 66 75 73 66 59 54 52 48 50 70 64 59 56
26 25 37 46 43 32 31 28 17 17 17 20 24 25 25 23 27 31 34 35 39 48 55 57 57 57 51 60 62 62 69 72 65 60 64 72 77 76 70 67 63 55 54 59 71 67 66 56 53
30 32 24 37 51 46 24 21 16 17 18 18 22 25 25 24 24 28 29 33 39 46 55 58 54 50 52 68 68 72 81 79 72 68 76 82 80 75 69 66 66 65 51 58 77 72 77 65 62
27 24 36 33 46 42 26 25 16 16 16 16 16 20 26 31 30 29 30 33 37 42 51 57 56 52 52 58 69 70 72 72 71 72 81 79 78 72 70 71 62 56 67 75 81 70 75 73 71
32 31 30 28 32 39 37 25 17 15 16 19 20 20 22 30 35 37 37 37 39 42 47 54 54 51 52 55 59 68 71 74 73 78 79 76 77 75 74 67 58 63 77 80 80 85 77 70 80
20 23 27 38 33 35 39 29 15 16 18 20 19 21 24 27 33 39 42 44 44 47 47 49 50 48 49 53 58 63 68 74 78 81 83 84 84 79 70 67 72 79 80 81 84 80 82 81 75
Wind_Speed
9 6 4 6 8 7 14 7 5 3 5 4 0 5 3 12 5 2 4 8 17 19 21 21 18 19 21 22 21 21 22 22 22 21 20 19 19 18 17 17 17 16 18 20 22 22 22 20 21
3 3 5 3 9 10 11 2 5 5 5 1 0 3 1 4 5 4 3 9 20 20 19 21 16 18 19 21 21 21 22 22 21 20 20 20 19 18 16 15 15 16 17 20 21 21 21 20 19
2 5 8 5 7 10 7 1 4 4 1 5 2 3 3 4 8 2 2 10 14 19 19 19 17 17 19 20 21 21 22 21 21 20 19 19 18 18 15 14 16 16 18 20 21 21 20 19 17
4 6 5 10 10 5 9 5 5 7 5 3 2 6 8 3 1 3 8 16 14 15 16 20 17 17 18 19 21 22 22 22 21 21 20 19 19 18 15 14 17 19 20 21 22 21 19 16 15
4 4 8 8 6 5 6 6 7 10 2 5 5 6 6 4 3 8 5 12 13 12 15 18 16 15 17 18 20 21 22 22 23 21 20 19 18 17 16 16 16 18 20 21 21 19 17 15 15
5 4 8 4 0 2 2 4 5 4 4 5 6 7 5 4 6 6 8 9 4 7 14 18 15 14 15 15 15 18 20 21 23 21 20 18 16 17 16 17 17 18 18 19 18 16 16 15 14
6 6 6 6 4 2 6 3 3 3 5 4 2 6 5 4 7 7 8 9 10 5 10 15 12 14 12 16 10 10 17 17 20 20 19 15 14 16 16 16 17 18 17 17 16 16 15 14 14
5 5 4 2 3 4 5 2 1 5 3 2 3 4 5 5 8 10 10 13 11 11 6 19 14 12 9 13 11 9 14 15 16 18 16 14 14 15 15 16 15 17 16 17 17 16 15 14 12
3 7 3 1 6 8 3 5 5 2 3 2 3 4 11 14 11 13 12 12 13 10 11 13 16 15 8 8 11 10 15 15 18 14 14 15 14 16 15 16 13 15 16 17 17 16 15 14 12
8 5 2 3 9 10 5 7 3 5 6 4 8 11 14 12 11 11 10 10 11 12 13 13 14 16 13 8 13 11 9 9 10 10 10 8 12 10 13 13 15 16 16 16 14 12 10 8 6
2 9 5 6 4 6 5 5 3 5 4 1 8 12 9 11 12 12 12 12 15 14 14 10 15 12 11 4 6 4 5 5 7 7 7 9 8 10 9 8 9 10 12 9 11 9 5 6 4
8 8 7 8 6 2 1 1 2 4 5 0 15 14 12 11 11 12 11 13 13 11 18 15 16 14 10 5 4 6 5 4 6 8 8 7 6 7 7 6 8 8 6 8 6 5 7 6 7
11 10 7 5 2 0 5 2 3 3 7 13 17 13 12 10 12 12 15 13 11 11 13 11 9 9 11 10 6 4 5 7 8 8 8 7 7 7 7 6 7 6 8 6 6 7 6 6 6
5 10 8 3 4 3 2 2 3 6 7 13 12 15 11 10 12 14 15 17 16 17 14 15 14 16 16 11 11 10 8 7 7 8 7 7 7 7 7 7 7 7 6 7 6 6 5 5 5
9 10 7 8 8 2 4 7 1 10 8 10 11 12 14 10 12 15 15 16 19 19 21 19 19 16 16 10 9 7 7 8 8 7 8 7 7 7 7 6 7 7 6 8 6 6 5 5 4
9 6 10 7 7 5 5 8 7 9 10 12 12 13 12 15 14 14 15 15 18 18 17 18 15 16 15 12 10 9 8 8 8 7 7 8 7 7 7 6 6 7 7 7 6 5 5 3 3
9 11 5 4 5 3 7 4 8 10 9 11 12 12 11 13 15 16 16 16 18 19 18 16 15 14 12 10 8 7 10 9 8 6 6 7 8 7 7 7 8 9 7 6 6 5 4 4 3
9 9 8 5 5 7 6 6 7 11 11 10 13 13 13 13 16 16 18 18 19 19 18 18 14 13 12 9 9 10 10 9 7 7 7 9 7 10 8 7 9 8 7 6 6 5 4 3 2
8 7 8 6 4 6 6 7 6 12 12 13 12 12 13 14 15 17 17 18 19 19 19 20 17 15 11 10 10 9 10 9 9 7 8 9 9 10 9 8 10 8 8 8 7 6 6 5 3
7 8 7 2 3 6 4 9 2 12 14 14 14 14 13 13 15 18 19 18 19 20 20 20 19 16 14 10 9 9 9 9 9 8 8 9 10 11 10 9 9 10 8 9 8 7 5 3 3
9 10 4 2 2 4 7 12 8 8 11 12 12 12 13 15 17 18 19 20 20 21 20 20 20 17 15 14 9 9 8 6 9 8 7 8 8 9 10 11 9 9 9 8 8 7 7 5 4
10 10 5 5 7 8 3 6 6 7 12 14 14 15 16 17 16 17 19 20 20 20 19 19 19 18 16 16 14 15 12 12 10 10 9 10 12 11 11 11 11 10 8 9 8 7 6 5 4
4 4 7 6 9 6 8 8 5 4 8 15 19 19 18 18 19 21 21 21 21 19 19 18 18 18 17 17 16 12 14 10 8 8 11 11 10 11 11 11 11 10 8 10 11 10 9 6 4
4 6 6 5 7 10 11 9 5 7 7 6 7 18 20 19 19 19 19 18 18 18 18 18 20 19 18 17 18 18 17 15 11 11 10 9 8 8 11 13 12 11 11 12 11 11 10 6 4
10 9 8 8 7 8 4 8 10 2 3 7 9 7 12 20 19 20 19 20 19 19 19 17 19 20 19 18 18 19 17 16 15 14 11 11 9 7 10 11 13 11 12 12 10 5 5 6 8
14 12 6 7 5 5 4 7 3 3 4 6 7 7 8 13 18 21 20 18 19 19 18 18 19 18 19 18 19 16 15 9 12 14 11 9 9 9 11 12 12 14 11 8 7 5 4 6 9
8 9 3 3 0 4 5 5 10 2 3 3 2 3 3 7 12 16 18 19 18 16 18 19 17 17 17 14 14 13 11 14 13 14 8 8 8 8 13 14 11 10 14 12 7 5 5 7 6
6 10 7 6 5 7 6 5 4 3 3 2 3 3 2 3 5 7 9 11 13 14 13 14 15 16 16 14 14 13 13 14 14 12 13 12 11 12 13 13 15 15 10 8 6 4 2 6 4
7 7 3 3 3 4 4 4 2 3 2 2 1 2 3 1 5 6 7 7 8 9 11 12 13 14 14 14 12 12 11 12 12 10 12 12 13 12 12 15 15 12 10 7 6 5 5 7 4
7 10 12 7 7 4 7 10 6 8 5 4 3 4 3 2 1 5 7 8 9 9 9 10 10 11 10 9 9 9 8 7 7 8 8 6 7 8 11 11 11 11 10 9 7 6 4 8 9
Wind_Direction
186 211 231 230 242 236 250 231 323 210 239 14 227 266 16 42 8 336 355 200 163 153 154 153 141 140 136 132 130 128 127 126 125 125 126 124 123 121 119 119 121 121 120 119 112 105 101 97 92
164 204 218 251 254 233 229 158 212 33 2 54 337 209 142 83 77 46 217 220 167 154 158 154 142 139 134 131 131 130 129 127 127 129 128 126 123 119 116 116 117 124 125 123 116 108 101 98 90
236 260 260 254 253 259 272 106 22 13 149 249 171 28 64 40 53 314 281 168 170 156 161 139 142 138 137 135 134 133 131 132 130 126 126 124 119 116 114 112 115 120 127 122 115 110 106 98 93
224 196 211 251 250 246 285 307 318 296 173 221 250 115 105 68 316 274 158 154 164 159 153 134 139 144 141 138 138 137 136 132 128 127 126 125 119 117 109 108 112 115 115 117 115 113 106 100 96
212 250 260 254 261 266 268 309 310 297 278 169 200 142 103 88 91 57 59 147 158 157 141 140 132 140 140 143 142 139 135 134 129 129 122 122 121 113 107 102 106 109 112 115 114 111 109 102 96
214 274 248 268 355 297 336 333 298 269 191 151 189 147 88 123 88 72 73 66 82 150 144 129 134 134 130 132 135 138 133 133 131 127 121 121 120 109 103 99 102 111 114 110 110 110 103 95 96
284 268 317 306 359 158 12 341 272 236 171 132 125 159 96 101 90 92 86 77 75 58 144 126 121 116 108 105 104 126 125 128 126 122 120 117 115 109 104 105 105 104 105 107 108 101 98 99 94
276 274 264 219 360 37 35 288 212 235 141 115 299 150 172 137 110 96 75 87 76 68 88 106 101 94 125 130 97 92 107 105 107 110 112 115 108 103 101 100 93 100 103 106 109 104 98 101 95
244 253 256 5 320 3 16 277 174 349 180 173 25 358 91 126 126 103 83 80 90 88 100 105 109 101 47 103 113 108 102 105 110 106 120 146 134 127 139 91 105 103 105 107 106 109 115 107 96
249 267 67 337 326 326 334 271 187 241 173 176 93 98 119 135 123 113 107 101 102 106 110 113 117 136 158 171 144 138 128 129 115 121 168 144 136 128 119 105 103 110 107 104 113 120 134 181 124
196 277 347 316 348 311 294 213 205 253 224 6 162 135 122 120 110 109 109 110 116 110 104 98 104 98 107 138 111 116 126 114 107 170 173 140 134 137 136 133 139 135 127 139 142 155 114 82 77
263 255 287 316 340 279 195 62 160 292 353 59 124 129 122 122 127 114 125 123 125 132 127 131 135 151 151 110 88 79 102 124 157 178 157 154 150 150 143 155 143 145 162 143 148 120 104 106 89
246 281 333 289 241 4 124 249 9 81 88 114 132 133 136 149 125 142 140 129 122 124 130 138 144 137 126 128 123 149 194 185 172 168 182 175 162 149 151 151 153 163 151 156 137 127 139 114 94
335 298 300 113 135 225 249 160 263 103 114 120 149 141 138 153 150 140 143 152 142 137 141 147 148 141 151 151 172 180 181 179 191 181 171 176 173 168 148 166 155 159 159 148 147 150 138 120 122
293 286 189 170 169 144 221 204 140 130 143 150 146 135 144 155 154 152 143 151 144 153 151 160 161 156 165 185 183 183 184 187 190 183 177 186 194 175 161 164 164 157 146 146 134 147 146 135 122
274 261 245 134 190 137 255 81 110 148 163 167 157 153 147 159 162 158 158 156 155 160 169 168 167 173 180 175 184 182 176 195 190 190 188 193 199 186 177 176 160 149 162 163 147 170 149 135 106
208 266 261 153 218 163 237 71 130 163 182 176 171 159 156 157 163 168 177 178 171 175 176 181 185 183 182 174 176 188 190 197 196 189 194 184 192 175 187 171 159 173 164 156 165 176 159 134 146
215 221 227 259 144 207 218 256 152 171 189 196 178 169 172 168 174 169 178 186 181 177 182 188 190 190 190 182 185 191 194 194 191 192 192 183 174 181 180 166 165 177 171 170 180 165 149 153 161
285 253 243 117 111 261 238 274 191 180 195 192 195 185 185 185 175 175 182 179 182 182 186 189 193 197 190 191 193 196 197 196 199 198 194 182 182 182 190 177 175 184 175 186 170 155 158 161 178
233 233 205 172 163 299 282 276 258 183 207 200 200 200 197 186 181 183 189 193 195 196 196 198 201 202 202 197 199 205 204 202 207 202 198 201 192 187 193 189 183 190 180 172 171 176 174 170 176
219 259 161 287 158 238 278 256 190 199 211 210 218 214 208 201 192 194 195 198 198 203 201 204 204 207 204 207 197 198 203 205 207 200 202 189 195 202 195 189 187 183 182 181 182 184 197 189 172
206 214 254 219 241 246 234 277 166 178 198 212 215 215 217 208 207 199 200 204 204 205 202 207 205 206 202 204 204 203 201 206 207 208 206 194 199 204 198 188 183 181 190 182 181 183 187 205 203
238 188 236 269 268 276 205 254 139 173 216 213 216 214 217 218 207 207 203 202 203 201 204 205 205 204 203 202 216 206 220 219 208 210 211 202 197 200 197 189 188 191 190 185 183 176 193 192 228
125 182 219 249 264 244 236 248 214 199 236 248 219 213 218 215 218 216 210 204 206 201 200 201 205 204 204 205 209 216 217 222 215 204 205 197 192 194 198 196 198 195 196 187 187 190 192 182 185
201 216 228 214 215 242 146 231 268 245 239 274 280 263 224 218 215 219 211 205 204 202 199 201 204 207 206 206 213 217 221 221 213 213 213 198 194 188 197 197 200 199 200 190 191 157 173 197 206
203 220 227 229 215 207 162 234 179 72 278 271 270 275 261 242 217 219 212 214 208 205 201 203 204 205 203 206 214 215 216 217 220 220 213 205 198 190 189 194 196 201 193 160 145 167 215 212 226
163 213 259 244 141 257 228 230 252 159 237 283 285 271 271 235 220 219 225 213 209 209 205 209 210 207 208 204 215 219 209 217 221 225 202 185 188 187 192 195 193 182 189 180 161 182 172 211 244
259 137 183 212 231 233 178 246 271 164 143 31 31 22 94 165 202 214 223 220 219 208 204 202 205 207 210 207 208 216 218 220 225 213 205 192 190 191 193 189 189 190 174 168 144 170 167 216 198
169 189 222 290 277 265 258 242 154 221 186 229 305 310 338 61 141 173 181 188 196 199 198 194 200 204 204 205 210 214 222 219 224 213 219 214 203 200 195 198 195 176 165 148 136 122 198 231 215
261 222 210 236 203 241 273 257 188 263 245 237 266 251 272 294 120 136 147 151 160 176 186 189 199 206 205 202 205 209 224 229 230 224 227 200 185 195 201 188 162 167 148 140 142 187 184 222 235